User: anonymous   Login
Location: ??
(35.5052°N, 139.7262°E)
Time: 07:57:24
(UTC+00:00)
Language:

Cosmos 2150 Rocket - Orbit

View from above orbital plane
View from above orbital plane
View from above satellite
View from above satellite

Ground track
Ground track

The orbit data is extracted from the following two-line orbital elements,

1 21419U 91041B   21263.31515882  .00000053  00000-0  28204-4 0  9997
2 21419  74.0412 333.0091 0041972 241.3301 118.3629 14.34013710583182
Epoch (UTC): 20 September 2021 07:33:49
Eccentricity: 0.0041972
inclination: 74.0412°
perigee height: 748 km
apogee height: 808 km
right ascension of ascending node: 333.0091°
argument of perigee: 241.3301°
revolutions per day: 14.34013710
mean anomaly at epoch: 118.3629°
orbit number at epoch: 58318

The dashed part of the orbit path shows where the satellite is in the earth's shadow,  

DLR